Wind_Speed
15 14 14 15 15 13 13 14 15 16 16 16 15 16 16 15 14 13 13 10 8 8 7 8 7 7 8 9 7 4 5 5 3 1 2 4 7 10 12 14 16 19 22 22 22 21 20
15 15 14 13 14 16 17 15 14 16 16 16 15 16 16 17 16 14 14 13 10 9 8 9 9 8 7 9 7 6 6 5 3 1 2 5 8 10 13 14 17 20 21 21 21 20 19
13 14 14 14 13 15 16 18 18 16 15 15 16 16 15 16 18 17 14 14 13 10 10 10 11 9 7 8 6 7 8 6 4 3 4 6 8 11 12 15 18 18 20 21 21 19 18
13 14 15 16 16 16 15 17 19 19 17 16 16 16 15 15 16 19 17 14 14 13 10 12 12 9 10 7 8 8 9 6 5 4 5 7 9 10 12 16 16 17 20 21 21 20 19
16 15 14 15 15 16 16 15 17 18 18 17 15 17 16 15 15 17 19 17 15 15 13 13 13 11 11 9 9 10 9 7 6 5 5 7 8 9 13 13 14 18 20 21 21 18 18
17 17 17 16 16 17 16 16 15 16 19 19 18 15 17 17 15 16 18 19 18 16 15 13 14 13 12 12 10 11 10 8 7 6 7 8 7 9 12 11 14 18 20 22 20 15 16
17 19 21 21 23 21 18 16 15 15 17 17 18 17 16 18 15 15 17 18 19 18 18 15 14 15 13 13 12 13 12 9 7 6 7 6 5 9 9 11 15 18 21 22 19 14 16
21 21 20 22 20 22 25 19 15 15 17 17 18 20 16 17 17 16 17 18 19 20 17 17 15 15 16 14 14 15 14 11 8 6 6 4 4 6 7 11 15 19 23 23 19 15 17
25 25 24 22 21 22 22 23 19 16 16 18 17 19 20 16 17 19 18 18 19 20 19 18 18 16 17 16 16 16 15 12 9 7 5 4 3 4 6 11 14 18 22 23 20 15 19
26 26 26 26 24 24 24 23 21 19 18 17 18 18 20 19 18 19 18 20 18 21 21 20 19 17 17 17 17 18 17 14 11 8 5 4 3 2 5 9 14 18 22 24 22 18 19
28 28 26 26 27 24 26 26 26 21 19 19 20 19 20 21 20 19 19 20 22 20 21 22 20 18 18 19 18 20 19 17 13 10 6 5 4 3 5 8 13 17 22 25 24 19 21
29 30 28 26 25 24 26 26 26 23 20 20 20 21 21 23 23 21 20 20 21 22 20 20 20 19 19 20 21 22 21 18 16 12 8 6 5 5 5 6 10 16 22 23 25 23 22
28 28 28 27 26 25 23 24 26 24 21 20 21 22 23 24 24 23 21 22 22 23 21 22 24 21 19 21 22 23 23 21 18 14 10 8 7 7 5 5 7 13 18 25 26 26 24
27 27 27 28 27 27 24 24 25 25 23 21 22 22 22 23 27 24 22 23 23 21 24 22 23 24 23 20 21 24 26 23 21 18 13 10 9 9 7 4 5 10 16 21 26 27 27
28 25 26 29 29 27 28 25 26 25 23 22 23 24 22 24 25 26 25 23 20 22 24 24 23 25 25 23 21 24 27 26 24 21 16 13 12 11 10 7 5 7 13 18 23 24 26
31 28 28 30 31 31 30 32 28 26 25 24 23 24 25 26 27 24 24 21 22 25 25 26 26 24 25 26 23 24 27 28 27 23 20 16 15 14 13 10 8 7 10 15 18 25 27
37 37 39 37 36 33 33 31 29 27 25 24 24 25 26 27 29 27 22 20 23 26 29 27 28 26 24 27 28 25 27 30 30 26 24 20 17 17 15 14 12 9 9 12 16 20 25
43 40 41 40 38 36 34 31 29 27 28 26 25 26 27 28 29 27 25 23 23 28 30 31 30 27 26 28 29 30 26 30 31 29 26 24 19 20 18 17 16 14 10 11 15 17 21
50 49 46 44 41 39 35 34 33 30 29 28 27 28 28 28 29 28 27 27 27 28 33 33 32 33 30 29 30 32 31 31 32 32 30 27 24 22 22 20 18 18 15 11 13 16 18
54 51 47 46 45 43 37 37 36 35 33 30 28 28 29 30 30 32 31 29 29 28 33 37 34 34 34 32 32 32 33 35 34 34 33 30 28 24 25 25 22 20 19 15 13 15 16
53 48 47 47 47 46 43 39 38 37 37 32 26 30 29 30 30 31 33 31 30 28 31 36 38 35 35 35 33 35 34 37 39 38 36 35 31 28 27 27 25 23 21 19 16 17 16
52 50 49 49 48 47 45 39 37 37 37 33 30 29 31 29 32 33 33 31 29 30 31 35 38 37 38 37 36 36 38 37 39 40 38 37 33 31 28 29 29 25 23 23 19 18 17
53 51 50 50 47 46 44 38 35 35 36 37 33 32 31 31 31 33 33 33 32 32 33 35 38 40 40 40 39 35 38 39 40 40 41 39 37 33 31 31 31 26 25 26 22 20 19
51 50 49 49 46 45 41 39 36 34 35 39 37 33 32 32 34 34 34 35 34 34 33 34 37 40 39 43 46 44 40 41 41 40 43 42 39 38 34 32 32 26 26 25 25 23 21
51 49 49 47 44 44 42 38 35 35 36 39 39 36 34 33 35 37 37 36 36 35 36 35 38 40 41 42 45 49 45 46 42 41 42 44 42 40 38 34 31 26 27 27 26 22 21
55 52 50 50 46 45 45 41 37 37 37 39 40 37 36 36 36 39 38 37 36 35 37 35 36 39 40 42 45 48 49 46 47 43 40 42 44 43 39 37 34 26 26 28 27 23 23
61 58 56 53 50 49 50 45 43 39 40 42 43 40 39 39 39 40 39 40 40 38 38 36 36 38 41 43 46 47 48 49 48 49 40 40 43 45 42 41 36 26 25 29 26 26 25
65 65 62 59 56 53 53 51 48 45 43 48 49 45 46 44 43 42 42 43 43 42 39 37 39 39 40 43 45 46 49 50 50 47 46 45 44 45 45 45 37 31 26 29 29 28 26
73 75 71 67 62 60 57 57 55 52 50 51 52 51 51 50 46 44 44 45 45 46 43 41 37 37 40 41 44 47 48 50 50 49 45 47 47 45 45 41 40 39 31 31 30 30 28
Wind_Direction
10 2 3 4 358 347 325 307 301 298 293 292 294 280 275 285 297 299 293 298 300 289 269 266 264 280 288 286 281 264 192 184 161 118 15 351 343 345 347 347 347 344 336 333 331 328 330
15 8 357 348 352 353 351 339 320 299 295 293 290 289 276 267 279 291 294 292 294 295 268 264 267 267 275 274 266 229 202 186 179 234 324 336 338 346 348 351 347 338 335 334 332 331 333
12 9 9 358 341 340 344 344 338 328 310 291 293 290 290 272 264 276 287 289 288 284 275 259 263 265 264 271 236 216 210 195 209 262 307 328 343 349 353 349 343 340 337 334 334 335 334
359 2 4 357 355 341 338 333 338 339 329 312 292 288 288 287 271 262 273 286 283 282 275 259 259 259 261 252 222 213 215 212 236 271 310 330 341 346 349 346 348 346 342 336 336 337 337
349 358 4 1 354 345 338 330 329 330 333 329 312 290 287 287 280 266 262 271 279 276 272 263 255 252 255 251 222 214 213 224 247 277 312 329 339 347 351 356 358 352 345 339 341 340 342
341 344 351 359 357 352 339 328 323 323 323 327 326 308 286 282 279 269 261 258 267 270 270 268 254 250 249 250 228 214 212 227 249 284 312 327 341 350 356 5 3 357 347 343 345 344 347
328 336 338 340 349 352 349 331 319 321 315 319 322 319 300 282 279 275 263 256 258 263 265 262 260 251 250 242 229 211 216 223 246 276 308 323 339 349 4 7 4 1 353 349 350 351 352
322 322 325 328 333 344 344 341 322 316 313 310 314 317 314 294 277 272 268 256 256 256 260 261 260 252 249 237 227 215 215 221 236 267 303 314 336 350 6 9 5 4 357 354 355 354 355
319 320 319 321 325 334 339 340 330 315 308 304 302 311 313 303 284 269 267 256 255 257 256 255 258 253 245 239 227 219 218 222 231 257 299 300 326 350 7 11 9 7 0 357 359 359 354
312 314 314 313 316 325 336 339 332 313 308 301 297 300 304 305 288 274 264 261 254 255 257 254 250 253 244 240 228 222 219 222 229 247 283 279 313 321 2 12 16 14 6 0 360 358 358
302 305 306 306 310 319 328 335 335 328 305 299 297 292 295 300 294 280 269 262 258 253 255 255 250 249 245 242 231 224 222 225 228 238 265 265 284 270 341 8 21 21 14 5 2 360 3
298 303 304 302 304 312 320 325 327 325 315 297 294 291 291 294 296 290 276 265 260 257 254 256 255 249 246 241 235 226 225 228 232 234 249 249 254 249 314 350 16 26 24 13 8 9 6
291 296 300 301 301 304 312 319 321 320 315 298 287 288 287 291 294 294 280 271 261 257 259 258 256 252 247 241 239 231 225 225 234 237 243 241 242 242 283 328 5 22 25 23 17 11 8
285 288 292 294 297 300 303 311 316 313 313 300 291 282 287 286 289 291 287 276 265 261 257 260 258 257 247 244 240 236 228 227 232 239 240 239 232 234 260 293 340 12 16 18 16 12 7
286 289 288 288 289 292 297 298 305 303 308 307 289 285 282 279 283 287 287 281 270 258 256 255 254 255 251 243 240 236 231 229 232 237 240 240 229 231 245 259 302 347 9 11 18 16 10
285 291 294 285 285 286 287 294 290 291 295 293 290 281 276 278 277 282 286 286 268 260 254 252 253 250 251 247 239 237 231 230 232 235 240 240 233 229 238 252 267 318 350 2 9 13 15
281 286 291 290 285 281 282 287 282 285 287 287 286 280 278 275 273 276 281 281 264 256 255 249 250 249 247 249 243 237 233 232 233 235 238 240 239 234 232 247 255 279 323 345 358 5 9
280 283 289 285 282 276 280 278 279 282 283 281 281 280 280 275 273 276 274 272 262 257 255 254 246 248 245 244 247 241 233 233 235 236 238 240 239 236 233 239 249 264 291 324 341 355 6
278 282 283 281 277 275 271 272 272 278 275 275 276 275 274 276 275 274 269 270 266 259 256 252 250 247 249 244 244 246 240 232 233 237 239 240 240 237 236 234 244 255 271 298 324 339 351
278 278 277 277 273 273 267 266 270 272 270 269 269 275 273 274 274 271 266 267 269 260 255 254 249 247 247 250 247 243 245 240 233 235 238 237 240 240 238 238 240 249 262 279 305 322 338
272 273 273 271 271 270 272 266 266 268 265 265 266 273 272 272 270 267 263 264 268 267 260 255 252 248 248 251 251 246 241 246 241 235 236 238 239 242 243 240 241 244 255 270 287 304 318
272 270 271 267 267 267 269 266 261 265 266 266 266 268 271 273 266 264 262 263 263 264 260 256 256 248 244 248 250 245 240 240 245 243 240 239 237 239 242 245 242 244 253 264 275 288 303
270 268 267 262 261 260 264 258 251 255 260 263 265 267 266 269 264 261 258 258 260 262 267 261 255 252 247 245 246 248 249 243 243 244 244 243 242 237 239 246 247 242 248 258 266 276 289
265 263 261 260 260 259 253 252 250 249 256 259 264 266 267 269 264 258 256 255 259 265 267 263 256 254 249 245 246 248 250 250 244 243 244 243 244 244 238 243 248 246 246 254 260 270 278
256 259 259 258 258 254 251 248 249 249 254 257 263 265 264 266 264 262 259 256 257 260 266 265 259 255 249 246 247 248 249 249 248 245 245 246 243 247 243 241 245 247 248 252 257 262 270
253 256 257 254 255 252 246 251 248 249 251 253 261 263 264 264 264 262 259 254 254 258 266 269 262 257 254 248 247 247 248 249 249 247 245 247 247 244 245 245 241 243 249 254 255 258 264
252 254 254 251 255 252 249 250 250 249 252 251 255 258 263 264 258 256 255 253 250 250 259 266 267 263 259 252 248 247 247 248 248 247 249 248 248 248 244 246 239 245 247 249 253 252 259
256 254 250 248 251 251 249 250 249 249 251 251 252 257 256 258 258 254 253 249 249 249 254 260 261 263 263 259 254 250 248 247 249 247 251 251 248 247 246 243 244 249 249 247 248 250 253
255 252 247 246 249 249 250 248 249 249 249 249 252 255 257 254 255 255 252 250 248 249 252 255 260 263 264 263 260 255 251 247 247 247 248 250 247 247 246 243 243 247 243 245 245 245 249
Height
5874 5872 5871 5869 5867 5865 5864 5863 5862 5862 5862 5862 5861 5861 5862 5863 5862 5862 5862 5861 5861 5861 5861 5861 5860 5862 5862 5864 5864 5864 5865 5866 5866 5866 5865 5865 5864 5863 5861 5859 5857 5854 5851 5847 5843 5839 5836
5874 5872 5871 5869 5867 5865 5863 5862 5860 5859 5858 5859 5858 5859 5859 5860 5860 5860 5860 5861 5860 5860 5860 5860 5860 5860 5861 5863 5862 5863 5864 5865 5866 5866 5865 5865 5864 5863 5861 5858 5856 5853 5849 5845 5841 5837 5834
5873 5872 5870 5868 5867 5865 5863 5861 5859 5858 5856 5855 5856 5856 5856 5856 5857 5858 5858 5859 5859 5858 5858 5858 5858 5859 5859 5862 5861 5863 5864 5865 5865 5866 5866 5865 5864 5862 5860 5858 5855 5851 5848 5843 5839 5835 5832
5873 5872 5870 5868 5867 5865 5862 5860 5858 5856 5854 5854 5853 5853 5852 5853 5854 5855 5856 5856 5857 5857 5856 5856 5857 5858 5858 5859 5860 5861 5864 5865 5865 5865 5865 5864 5863 5862 5860 5857 5854 5850 5846 5841 5837 5833 5830
5870 5868 5867 5866 5864 5863 5861 5859 5857 5855 5853 5851 5850 5850 5849 5849 5850 5851 5853 5854 5854 5854 5855 5854 5856 5856 5857 5857 5859 5860 5862 5864 5864 5864 5864 5863 5863 5861 5859 5857 5854 5849 5844 5840 5835 5831 5828
5868 5866 5864 5862 5860 5859 5858 5856 5854 5853 5851 5850 5848 5847 5846 5846 5846 5847 5848 5850 5850 5851 5852 5853 5853 5856 5856 5856 5857 5859 5860 5862 5863 5863 5863 5862 5861 5860 5859 5856 5853 5848 5843 5838 5834 5832 5828
5867 5865 5863 5861 5859 5857 5854 5853 5852 5851 5848 5847 5845 5844 5844 5842 5843 5843 5844 5846 5849 5849 5849 5850 5852 5852 5853 5854 5855 5857 5859 5860 5862 5862 5862 5861 5860 5859 5858 5856 5852 5848 5843 5838 5833 5830 5827
5864 5863 5861 5859 5857 5855 5853 5851 5849 5847 5846 5845 5843 5841 5840 5840 5840 5840 5840 5841 5843 5845 5846 5847 5847 5849 5850 5852 5853 5855 5857 5860 5860 5861 5861 5861 5859 5858 5857 5855 5852 5847 5842 5837 5832 5829 5826
5860 5859 5858 5857 5855 5853 5851 5850 5848 5846 5843 5842 5840 5839 5838 5836 5836 5836 5836 5837 5839 5841 5842 5843 5844 5845 5847 5850 5851 5853 5855 5857 5858 5859 5859 5859 5859 5857 5856 5854 5851 5847 5842 5836 5831 5828 5824
5856 5856 5855 5853 5851 5850 5848 5847 5845 5843 5842 5839 5837 5836 5835 5833 5833 5832 5832 5834 5834 5835 5838 5840 5841 5842 5844 5846 5848 5850 5852 5855 5856 5857 5857 5857 5857 5856 5855 5854 5851 5846 5841 5835 5830 5827 5823
5851 5850 5850 5849 5849 5847 5846 5843 5841 5839 5838 5836 5834 5833 5831 5830 5829 5829 5830 5830 5831 5832 5834 5836 5837 5839 5840 5843 5846 5847 5849 5851 5853 5854 5855 5856 5855 5855 5854 5853 5850 5846 5841 5835 5830 5826 5823
5845 5845 5845 5844 5844 5843 5841 5839 5838 5835 5833 5832 5831 5830 5830 5828 5826 5826 5826 5827 5828 5831 5830 5832 5834 5835 5837 5838 5841 5843 5846 5849 5850 5851 5852 5852 5853 5853 5853 5851 5849 5845 5841 5836 5830 5826 5822
5839 5838 5839 5838 5838 5838 5836 5835 5833 5831 5829 5828 5826 5825 5824 5825 5823 5822 5822 5823 5825 5826 5828 5829 5830 5832 5833 5834 5837 5839 5842 5844 5847 5849 5849 5850 5851 5851 5851 5850 5848 5844 5841 5836 5832 5825 5821
5831 5831 5832 5832 5832 5832 5830 5829 5828 5825 5824 5823 5822 5820 5820 5820 5819 5818 5818 5818 5819 5822 5823 5824 5826 5828 5829 5830 5832 5835 5838 5841 5843 5845 5846 5847 5848 5849 5848 5848 5847 5843 5840 5835 5830 5825 5821
5823 5823 5824 5825 5825 5824 5824 5822 5820 5820 5818 5817 5817 5816 5815 5814 5813 5814 5814 5813 5816 5816 5818 5819 5820 5823 5825 5826 5828 5829 5834 5836 5838 5841 5843 5844 5844 5845 5846 5845 5845 5842 5839 5836 5831 5827 5822
5814 5815 5816 5816 5817 5817 5815 5816 5816 5813 5811 5810 5809 5809 5809 5808 5808 5808 5809 5810 5810 5811 5811 5813 5815 5817 5820 5822 5823 5824 5827 5831 5833 5836 5838 5840 5841 5841 5843 5843 5842 5840 5838 5835 5831 5827 5822
5803 5805 5807 5808 5809 5808 5808 5806 5807 5806 5805 5803 5802 5802 5802 5802 5802 5803 5804 5805 5804 5805 5807 5807 5809 5811 5813 5816 5818 5818 5822 5826 5828 5830 5833 5835 5837 5838 5838 5840 5839 5838 5836 5834 5831 5827 5822
5795 5795 5796 5797 5798 5800 5799 5800 5798 5799 5798 5796 5795 5795 5795 5795 5797 5797 5799 5798 5799 5798 5800 5802 5803 5806 5808 5809 5812 5814 5816 5818 5822 5825 5827 5830 5832 5833 5834 5835 5836 5835 5834 5832 5829 5827 5821
5784 5786 5786 5788 5788 5788 5789 5789 5790 5789 5789 5788 5788 5788 5788 5788 5790 5791 5791 5792 5792 5792 5793 5795 5797 5799 5802 5803 5806 5809 5811 5812 5815 5818 5821 5824 5826 5828 5830 5831 5832 5831 5831 5829 5827 5824 5821
5770 5773 5774 5777 5778 5778 5780 5780 5780 5780 5779 5779 5780 5780 5781 5780 5782 5783 5784 5785 5785 5785 5786 5787 5790 5792 5793 5797 5800 5802 5806 5807 5808 5810 5813 5816 5820 5822 5824 5825 5826 5827 5827 5826 5824 5822 5820
5756 5759 5761 5763 5765 5768 5770 5771 5771 5771 5771 5772 5770 5772 5772 5772 5773 5774 5775 5778 5778 5778 5779 5779 5781 5785 5787 5789 5793 5795 5798 5801 5802 5803 5805 5809 5813 5816 5817 5819 5821 5822 5822 5821 5821 5819 5817
5744 5747 5749 5751 5753 5756 5758 5759 5761 5762 5764 5764 5763 5764 5763 5763 5764 5765 5767 5770 5770 5769 5771 5773 5774 5776 5777 5781 5784 5786 5787 5791 5795 5798 5799 5801 5805 5808 5811 5812 5814 5817 5817 5817 5817 5816 5814
5727 5731 5734 5737 5739 5742 5745 5747 5749 5751 5754 5755 5754 5753 5753 5755 5754 5756 5759 5760 5761 5760 5762 5764 5766 5766 5769 5774 5774 5778 5781 5783 5786 5790 5792 5794 5797 5800 5804 5804 5806 5811 5812 5811 5812 5811 5810
5712 5717 5719 5722 5726 5730 5733 5736 5737 5740 5742 5744 5744 5743 5744 5746 5746 5748 5749 5751 5753 5753 5754 5755 5756 5757 5761 5762 5765 5768 5771 5774 5777 5781 5784 5787 5790 5792 5796 5798 5799 5804 5805 5806 5806 5806 5805
5698 5703 5707 5710 5714 5718 5721 5724 5726 5728 5731 5733 5734 5735 5734 5735 5737 5739 5740 5741 5743 5745 5746 5746 5747 5748 5750 5751 5754 5757 5761 5765 5769 5771 5775 5779 5782 5784 5786 5790 5793 5798 5798 5799 5799 5801 5799
5682 5688 5693 5697 5701 5704 5708 5712 5714 5717 5720 5721 5723 5724 5724 5725 5727 5728 5730 5732 5733 5736 5737 5738 5737 5738 5740 5742 5743 5745 5750 5754 5759 5762 5766 5770 5773 5776 5779 5781 5785 5789 5791 5791 5792 5794 5793
5663 5671 5677 5682 5687 5691 5696 5699 5701 5706 5710 5710 5712 5713 5714 5714 5715 5717 5719 5721 5723 5725 5727 5729 5729 5729 5730 5731 5732 5735 5739 5743 5746 5752 5759 5760 5763 5765 5770 5771 5777 5783 5782 5782 5785 5788 5786
5646 5654 5660 5665 5670 5676 5680 5685 5688 5692 5697 5699 5700 5701 5703 5703 5703 5705 5707 5710 5712 5714 5716 5719 5719 5719 5720 5721 5723 5726 5727 5732 5734 5740 5746 5752 5753 5756 5759 5763 5771 5774 5775 5775 5776 5777 5778
5628 5636 5642 5646 5652 5658 5663 5669 5674 5678 5682 5685 5688 5690 5691 5691 5693 5693 5696 5698 5700 5702 5705 5706 5709 5711 5709 5712 5713 5714 5716 5719 5724 5727 5734 5738 5744 5745 5750 5756 5760 5761 5765 5765 5766 5768 5770